timestamp,wind_dir_avg,wind_spd_avg,wind_spd_max_dir,wind_spd_gust,battery_voltage,lat,long
2023-06-04 00:04:01+00:00,43.0,10.29,45.0,12.01,12.41,47.59359,-54.27349
2023-06-04 00:14:01+00:00,46.0,9.68,49.0,10.88,12.33,47.59359,-54.27349
2023-06-04 00:24:01+00:00,42.0,10.81,43.0,12.16,12.33,47.59359,-54.27349
2023-06-04 00:34:01+00:00,43.0,10.55,42.0,11.72,12.33,47.59359,-54.27349
2023-06-04 00:44:01+00:00,46.0,10.7,42.0,11.78,12.33,47.59359,-54.27349
2023-06-04 00:54:01+00:00,45.0,10.17,42.0,11.87,12.33,47.59359,-54.27349
2023-06-04 01:04:01+00:00,44.0,11.37,44.0,12.22,12.33,47.59359,-54.27349
2023-06-04 01:14:00+00:00,43.0,12.0,40.0,13.57,12.33,47.59359,-54.27349
2023-06-04 01:24:00+00:00,45.0,9.83,45.0,11.15,12.33,47.59359,-54.27349
2023-06-04 01:34:00+00:00,43.0,11.4,43.0,12.92,12.33,47.59359,-54.27349
2023-06-04 01:44:00+00:00,39.0,11.58,36.0,12.96,12.33,47.59359,-54.27349
2023-06-04 01:54:00+00:00,41.0,11.28,40.0,12.56,12.33,47.59359,-54.27349
2023-06-04 02:04:00+00:00,45.0,10.6,47.0,11.55,12.33,47.59359,-54.27349
2023-06-04 02:14:00+00:00,42.0,9.87,42.0,11.14,12.33,47.59359,-54.27349
2023-06-04 02:24:00+00:00,44.0,9.99,43.0,11.46,12.33,47.59359,-54.27349
2023-06-04 02:34:00+00:00,46.0,10.74,43.0,11.86,12.33,47.59359,-54.27349
2023-06-04 02:44:00+00:00,42.0,10.02,40.0,11.64,12.33,47.59359,-54.27349
2023-06-04 02:54:00+00:00,43.0,10.6,42.0,11.86,12.33,47.59359,-54.27349
2023-06-04 03:04:00+00:00,41.0,10.36,41.0,11.63,12.33,47.59359,-54.27349
2023-06-04 03:14:01+00:00,38.0,10.96,39.0,12.01,12.33,47.59359,-54.27349
2023-06-04 03:24:01+00:00,39.0,9.48,39.0,10.32,12.33,47.59359,-54.27349
2023-06-04 03:34:01+00:00,41.0,9.69,42.0,11.02,12.33,47.59359,-54.27349
2023-06-04 03:44:01+00:00,41.0,9.06,35.0,10.65,12.33,47.59359,-54.27349
2023-06-04 03:54:01+00:00,44.0,9.64,41.0,10.94,12.33,47.59359,-54.27349
2023-06-04 04:04:01+00:00,42.0,9.27,36.0,10.43,12.33,47.59359,-54.27349
2023-06-04 04:14:00+00:00,41.0,9.16,37.0,10.41,12.25,47.59359,-54.27349
2023-06-04 04:24:00+00:00,43.0,9.2,40.0,10.44,12.25,47.59359,-54.27349
2023-06-04 04:34:00+00:00,47.0,9.5,42.0,11.1,12.25,47.59359,-54.27349
2023-06-04 04:44:00+00:00,50.0,9.03,48.0,10.06,12.25,47.59359,-54.27349
2023-06-04 04:54:00+00:00,45.0,10.28,46.0,11.27,12.25,47.59359,-54.27349
2023-06-04 05:04:00+00:00,41.0,9.54,37.0,10.55,12.25,47.59359,-54.27349
2023-06-04 05:14:01+00:00,44.0,8.65,44.0,9.77,12.25,47.59359,-54.27349
2023-06-04 05:24:01+00:00,44.0,8.37,40.0,10.11,12.25,47.59359,-54.27349
2023-06-04 05:34:01+00:00,40.0,10.12,43.0,11.03,12.25,47.59359,-54.27349
2023-06-04 05:44:01+00:00,39.0,9.95,43.0,11.04,12.25,47.59359,-54.27349
2023-06-04 05:54:01+00:00,40.0,10.63,46.0,12.04,12.25,47.59359,-54.27349
2023-06-04 06:04:01+00:00,43.0,9.0,45.0,11.03,12.25,47.59359,-54.27349
2023-06-04 06:14:00+00:00,42.0,9.76,39.0,10.75,12.17,47.59359,-54.27349
2023-06-04 06:24:00+00:00,40.0,9.13,37.0,10.4,12.17,47.59359,-54.27349
2023-06-04 06:34:00+00:00,38.0,9.31,39.0,10.67,12.17,47.59359,-54.27349
2023-06-04 06:44:00+00:00,39.0,10.13,43.0,11.36,12.17,47.59359,-54.27349
2023-06-04 06:54:00+00:00,39.0,10.95,37.0,12.42,12.17,47.59359,-54.27349
2023-06-04 07:04:00+00:00,42.0,9.81,45.0,11.36,12.17,47.59359,-54.27349
2023-06-04 07:14:01+00:00,43.0,10.24,41.0,11.6,12.09,47.59359,-54.27349
2023-06-04 07:24:01+00:00,49.0,8.93,51.0,10.55,12.09,47.59359,-54.27349
2023-06-04 07:34:01+00:00,43.0,9.62,42.0,10.7,12.09,47.59359,-54.27349
2023-06-04 07:44:01+00:00,46.0,8.84,47.0,10.17,12.09,47.59359,-54.27349
2023-06-04 07:54:01+00:00,47.0,9.29,50.0,10.55,12.09,47.59359,-54.27349
2023-06-04 08:04:01+00:00,46.0,8.25,50.0,9.6,12.09,47.59359,-54.27349
2023-06-04 08:14:00+00:00,45.0,8.78,45.0,9.55,12.09,47.59359,-54.27349
2023-06-04 08:24:00+00:00,46.0,8.89,49.0,9.85,12.09,47.59359,-54.27349
2023-06-04 08:34:00+00:00,46.0,9.35,47.0,10.9,12.09,47.59359,-54.27349
2023-06-04 08:44:00+00:00,41.0,10.14,48.0,11.68,12.09,47.59359,-54.27349
2023-06-04 08:54:00+00:00,42.0,9.92,41.0,11.3,12.09,47.59359,-54.27349
2023-06-04 09:04:00+00:00,42.0,9.6,38.0,11.0,12.09,47.59359,-54.27349
2023-06-04 09:14:00+00:00,43.0,8.68,42.0,10.54,12.09,47.59359,-54.27349
2023-06-04 09:24:00+00:00,41.0,9.41,43.0,10.88,12.09,47.59359,-54.27349
2023-06-04 09:34:00+00:00,42.0,9.85,45.0,11.03,12.09,47.59359,-54.27349
2023-06-04 09:44:00+00:00,42.0,9.11,38.0,10.36,12.09,47.59359,-54.27349
2023-06-04 09:54:00+00:00,39.0,9.53,38.0,10.5,12.09,47.59359,-54.27349
2023-06-04 10:04:00+00:00,36.0,10.13,34.0,11.55,12.09,47.59359,-54.27349
2023-06-04 10:14:00+00:00,36.0,9.86,34.0,10.83,12.17,47.59359,-54.27349
2023-06-04 10:24:00+00:00,37.0,9.73,37.0,10.63,12.17,47.59359,-54.27349
2023-06-04 10:34:00+00:00,39.0,9.26,40.0,10.62,12.17,47.59359,-54.27349
2023-06-04 10:44:00+00:00,40.0,9.19,36.0,10.7,12.17,47.59359,-54.27349
2023-06-04 10:54:00+00:00,39.0,9.24,36.0,10.66,12.17,47.59359,-54.27349
2023-06-04 11:04:00+00:00,38.0,9.29,35.0,10.55,12.17,47.59359,-54.27349
2023-06-04 11:14:00+00:00,39.0,9.52,37.0,10.59,12.41,47.59359,-54.27349
2023-06-04 11:24:00+00:00,38.0,9.9,37.0,11.21,12.41,47.59359,-54.27349
2023-06-04 11:34:00+00:00,38.0,10.13,36.0,11.36,12.41,47.59359,-54.27349
2023-06-04 11:44:00+00:00,39.0,10.38,41.0,11.7,12.41,47.59359,-54.27349
2023-06-04 11:54:00+00:00,38.0,10.59,35.0,11.28,12.41,47.59359,-54.27349
2023-06-04 12:04:00+00:00,38.0,9.26,38.0,10.58,12.41,47.59359,-54.27349
2023-06-04 12:14:00+00:00,41.0,9.55,39.0,10.72,13.29,47.59359,-54.27349
2023-06-04 12:24:00+00:00,40.0,8.34,42.0,9.39,13.29,47.59359,-54.27349
2023-06-04 12:34:00+00:00,41.0,9.21,42.0,10.03,13.29,47.59359,-54.27349
2023-06-04 12:44:00+00:00,41.0,9.49,36.0,10.41,13.29,47.59359,-54.27349
2023-06-04 12:54:00+00:00,42.0,9.42,40.0,10.08,13.29,47.59359,-54.27349
2023-06-04 13:04:00+00:00,39.0,9.65,40.0,11.0,13.29,47.59359,-54.27349
2023-06-04 13:14:00+00:00,39.0,8.31,39.0,9.02,13.21,47.59359,-54.27349
2023-06-04 13:24:00+00:00,38.0,9.02,37.0,9.89,13.21,47.59359,-54.27349
2023-06-04 13:34:00+00:00,39.0,8.9,37.0,9.92,13.21,47.59359,-54.27349
2023-06-04 13:44:00+00:00,39.0,8.74,42.0,9.55,13.21,47.59359,-54.27349
2023-06-04 13:54:00+00:00,37.0,9.16,38.0,10.18,13.21,47.59359,-54.27349
2023-06-04 14:04:00+00:00,38.0,8.58,39.0,9.5,13.21,47.59359,-54.27349
2023-06-04 14:14:00+00:00,39.0,8.8,41.0,9.7,13.13,47.59359,-54.27349
2023-06-04 14:24:00+00:00,40.0,8.55,38.0,10.1,13.13,47.59359,-54.27349
2023-06-04 14:34:00+00:00,38.0,9.27,39.0,10.14,13.13,47.59359,-54.27349
2023-06-04 14:44:00+00:00,37.0,8.66,37.0,10.12,13.13,47.59359,-54.27349
2023-06-04 14:54:00+00:00,36.0,9.48,38.0,10.42,13.13,47.59359,-54.27349
2023-06-04 15:04:00+00:00,36.0,9.68,34.0,10.83,13.13,47.59359,-54.27349
2023-06-04 15:14:01+00:00,39.0,9.4,36.0,10.6,13.6,47.59359,-54.27349
2023-06-04 15:24:01+00:00,39.0,9.62,38.0,10.75,13.6,47.59359,-54.27349
2023-06-04 15:34:01+00:00,39.0,9.14,45.0,10.51,13.6,47.59359,-54.27349
2023-06-04 15:44:01+00:00,39.0,9.18,38.0,10.2,13.6,47.59359,-54.27349
2023-06-04 15:54:01+00:00,38.0,9.54,37.0,10.32,13.6,47.59359,-54.27349
2023-06-04 16:04:01+00:00,37.0,9.21,37.0,10.27,13.6,47.59359,-54.27349
2023-06-04 16:14:01+00:00,35.0,9.0,36.0,10.23,13.6,47.59359,-54.27349
2023-06-04 16:24:01+00:00,34.0,8.99,32.0,10.02,13.6,47.59359,-54.27349
2023-06-04 16:34:01+00:00,35.0,8.69,37.0,9.68,13.6,47.59359,-54.27349
2023-06-04 16:44:01+00:00,35.0,8.94,36.0,10.21,13.6,47.59359,-54.27349
2023-06-04 16:54:01+00:00,33.0,8.46,32.0,9.19,13.6,47.59359,-54.27349
2023-06-04 17:04:01+00:00,33.0,9.18,32.0,9.95,13.6,47.59359,-54.27349
2023-06-04 17:14:00+00:00,34.0,9.64,34.0,10.72,13.68,47.59359,-54.27349
2023-06-04 17:24:00+00:00,33.0,9.86,34.0,10.52,13.68,47.59359,-54.27349
2023-06-04 17:34:00+00:00,34.0,9.33,36.0,10.27,13.68,47.59359,-54.27349
2023-06-04 17:44:00+00:00,34.0,8.64,34.0,9.58,13.68,47.59359,-54.27349
2023-06-04 17:54:00+00:00,33.0,8.88,34.0,9.74,13.68,47.59359,-54.27349
2023-06-04 18:04:00+00:00,35.0,8.41,32.0,9.14,13.68,47.59359,-54.27349
2023-06-04 18:14:00+00:00,38.0,8.43,43.0,9.55,13.68,47.59359,-54.27349
2023-06-04 18:24:00+00:00,57.0,5.76,60.0,6.6,13.68,47.59359,-54.27349
2023-06-04 18:34:00+00:00,45.0,7.59,48.0,8.74,13.68,47.59359,-54.27349
2023-06-04 18:44:00+00:00,50.0,6.5,49.0,7.46,13.68,47.59359,-54.27349
2023-06-04 18:54:00+00:00,57.0,5.76,57.0,6.5,13.68,47.59359,-54.27349
2023-06-04 19:04:00+00:00,51.0,6.04,50.0,7.08,13.68,47.59359,-54.27349
2023-06-04 19:14:01+00:00,58.0,5.76,58.0,6.42,13.68,47.59359,-54.27349
2023-06-04 19:24:01+00:00,51.0,5.98,49.0,6.99,13.68,47.59359,-54.27349
2023-06-04 19:34:01+00:00,48.0,6.71,54.0,7.78,13.68,47.59359,-54.27349
2023-06-04 19:44:01+00:00,37.0,7.66,37.0,8.42,13.68,47.59359,-54.27349
2023-06-04 19:54:01+00:00,37.0,8.05,39.0,8.8,13.68,47.59359,-54.27349
2023-06-04 20:04:01+00:00,40.0,7.82,39.0,8.53,13.68,47.59359,-54.27349
2023-06-04 20:14:00+00:00,38.0,7.63,36.0,8.36,13.68,47.59359,-54.27349
2023-06-04 20:24:00+00:00,38.0,7.51,36.0,8.26,13.68,47.59359,-54.27349
2023-06-04 20:34:00+00:00,40.0,7.46,41.0,8.15,13.68,47.59359,-54.27349
2023-06-04 20:44:00+00:00,39.0,8.13,41.0,8.91,13.68,47.59359,-54.27349
2023-06-04 20:54:00+00:00,41.0,8.32,43.0,9.43,13.68,47.59359,-54.27349
2023-06-04 21:04:00+00:00,37.0,8.38,37.0,9.26,13.68,47.59359,-54.27349
2023-06-04 21:14:00+00:00,39.0,8.02,35.0,8.76,13.6,47.59359,-54.27349
2023-06-04 21:24:00+00:00,38.0,8.51,38.0,9.31,13.6,47.59359,-54.27349
2023-06-04 21:34:00+00:00,38.0,8.28,43.0,9.09,13.6,47.59359,-54.27349
2023-06-04 21:44:00+00:00,37.0,8.01,34.0,8.9,13.6,47.59359,-54.27349
2023-06-04 21:54:00+00:00,38.0,8.04,44.0,8.87,13.6,47.59359,-54.27349
2023-06-04 22:04:00+00:00,37.0,7.76,39.0,8.53,13.6,47.59359,-54.27349
2023-06-04 22:14:01+00:00,37.0,7.89,34.0,8.66,13.21,47.59359,-54.27349
2023-06-04 22:24:01+00:00,38.0,7.89,37.0,8.82,13.21,47.59359,-54.27349
2023-06-04 22:34:01+00:00,39.0,7.59,40.0,8.36,13.21,47.59359,-54.27349
2023-06-04 22:44:01+00:00,40.0,7.75,39.0,8.55,13.21,47.59359,-54.27349
2023-06-04 22:54:01+00:00,40.0,7.84,37.0,8.52,13.21,47.59359,-54.27349
2023-06-04 23:04:01+00:00,38.0,7.45,40.0,8.15,13.21,47.59359,-54.27349
2023-06-04 23:14:00+00:00,38.0,7.78,34.0,8.59,12.73,47.59359,-54.27349
2023-06-04 23:24:00+00:00,38.0,7.6,41.0,8.26,12.73,47.59359,-54.27349
2023-06-04 23:34:00+00:00,41.0,7.59,40.0,8.32,12.73,47.59359,-54.27349
2023-06-04 23:44:00+00:00,42.0,7.16,42.0,7.94,12.73,47.59359,-54.27349
2023-06-04 23:54:00+00:00,42.0,7.0,39.0,7.85,12.73,47.59359,-54.27349
